Regional Weather Roundup
Issued by NWS

Home | Current Version | Previous Version | Graphics & Text | Print | Product List | Glossary On
Versions: 1 2 3 4 5 6 7 8 9 10 11 12 13 14 15 16 17 18 19 20 21 22 23 24 25 26 27 28 29 30 31 32 33 34 35 36 37 38 39 40 41 42 43 44 45 46 47 48 49 50
000
ASUS43 KLMK 252102
RWRKY
KENTUCKY REGIONAL WEATHER ROUNDUP
NATIONAL WEATHER SERVICE LOUISVILLE KY
500 PM EDT TUE APR 25 2017

NOTE "FAIR" INDICATES FEW OR NO CLOUDS BELOW 12,000 FEET
WITH NO SIGNIFICANT WEATHER AND/OR OBSTRUCTIONS TO VISIBILITY.

KYZ001>023-026-027-061>063-070>075-252200-
WESTERN AND SOUTH CENTRAL KENTUCKY

CITY           SKY/WX    TMP DP  RH WIND       PRES   REMARKS
PADUCAH        SUNNY     79  53  40 SE13      29.62F
HENDERSON      SUNNY     78  57  48 SE14      29.66F
OWENSBORO      SUNNY     78  57  48 S12       29.67F
HOPKINSVILLE   SUNNY     77  57  49 SE6       29.68F
BOWLING GREEN  PTSUNNY   77  58  51 SW9       29.71F
GLASGOW        NOT AVBL
$$

KYZ024-025-028>034-038-045-046-053-252200-
NORTH CENTRAL KENTUCKY

CITY           SKY/WX    TMP DP  RH WIND       PRES   REMARKS
LOUISVILLE/SDF PTSUNNY   76  56  49 S7        29.69F
LOUISVILLE/LOU SUNNY     75  57  53 VRB6      29.69F
FORT KNOX      MOSUNNY   74  56  53 S7        29.69S
$$

KYZ035>037-039>044-047>052-055>060-089>105-252200-
NORTHEAST KENTUCKY

CITY           SKY/WX    TMP DP  RH WIND       PRES   REMARKS
LEXINGTON      CLOUDY    72  56  57 VRB5      29.73F
COVINGTON      MOSUNNY   73  57  57 SE6       29.70F
FRANKFORT      SUNNY     73  55  53 CALM      29.71F
$$

KYZ054-064>069-076>088-106>120-252200-
SOUTHEAST KENTUCKY

CITY           SKY/WX    TMP DP  RH WIND       PRES   REMARKS
JACKSON        CLOUDY    72  56  57 CALM      29.73F
LONDON         CLOUDY    72  53  51 S3        29.73F
SOMERSET       CLOUDY    68  54  60 W6        29.76S
MIDDLESBORO    CLOUDY    70  57  63 S5        29.73F
MONTICELLO     CLOUDY    71  55  56 VRB7      29.76F
$$




USA.gov is the U.S. government's official web portal to all federal, state and local government web resources and services.